Location: Rodanthe
(35.5920°N, 75.4670°W)
Time: 14:55:29
(UTC-04:00)

Daily predictions for brighter satellites

Satellite Brightness Start Highest point End
(mag) Time Altitude Azimuth Time Altitude Azimuth Time Altitude Azimuth
Cosmos 2278 Rocket 2.4 19:07:33 10° NNW 19:13:13 79° WSW 19:18:50 10° SSE
CENTAUR R/B 4.0 19:12:26 10° SE 19:14:58 13° ESE 19:17:36 10° ENE
Cosmos 1441 Rocket 3.4 19:11:20 10° NNW 19:15:04 77° W 19:18:48 10° S
Okean 3 Rocket 3.7 19:12:25 10° N 19:16:55 59° E 19:21:23 10° SSE
Meteor 1-22 Rocket 4.1 19:11:48 10° S 19:17:07 66° E 19:22:22 10° NNE
Resurs 01 Rocket 2.8 19:14:20 10° ESE 19:17:51 23° ENE 19:21:23 10° NNE
NOSS 3-2 (C) 3.5 19:12:03 10° SSW 19:17:57 66° ESE 19:24:20 10° NE
Meteor 1-28 Rocket 3.5 19:15:09 10° NNE 19:18:43 44° E 19:22:15 10° S
SAR-Lupe-4 3.8 19:15:21 10° SSE 19:18:47 47° ENE 19:22:14 10° N
Cosmos 2297 3.8 19:13:42 10° NNW 19:19:16 55° ENE 19:24:46 10° SE
Spot 2 Rocket 4.3 19:19:32 10° SE 19:23:54 31° ENE 19:28:18 10° N
Abrixas 3.5 19:23:07 10° SSW 19:25:44 28° SE 19:28:11 11° ENE
Meteor 1-24 Rocket 3.6 19:23:15 10° N 19:28:52 75° E 19:34:15 10° SSE
Cosmos 1707 3.5 19:25:26 10° NNW 19:29:13 56° W 19:32:58 10° S
Helios 1A 4.0 19:26:03 10° SE 19:29:33 26° ENE 19:33:04 10° NNE
ATLAS CENTAUR R/B 3.2 19:27:02 10° SW 19:31:13 90° ESE 19:44:15 10° NE
Cosmos 2056 Rocket 3.6 19:26:33 10° NNW 19:32:01 83° ENE 19:37:26 10° SSE
Cosmos 1603 4.2 19:27:48 10° S 19:33:01 38° ESE 19:38:17 10° NE
Cosmos 1072 Rocket 4.4 19:28:33 10° S 19:34:37 73° E 19:40:42 10° N
SJ-6B 2.8 19:36:47 10° SSE 19:40:42 80° ENE 19:44:45 10° N
GPS 2-04 Rocket1 3.3 19:40:01 10° SW 19:43:09 32° SSE 19:45:06 19° ESE
COSMO-SKYMED 1 4.4 19:41:41 10° N 19:45:37 34° WNW 19:49:32 10° SW
NOAA 12 4.1 19:44:35 10° SSE 19:49:50 88° ENE 19:55:08 10° NNW
Spot 1 4.2 19:45:47 10° SSE 19:50:33 66° ENE 19:55:04 10° N
Cosmos 1758 3.3 19:47:44 10° S 19:51:44 61° E 19:55:47 10° NNE
HJ-1C 3.4 19:49:40 10° SSE 19:52:57 56° ENE 19:56:16 10° N
Timation 1 Rocket 4.3 19:47:26 10° NNW 19:53:25 77° ENE 19:59:22 10° SSE
FengYun 1-2 T 4.4 19:49:23 10° SE 19:54:39 49° ENE 19:59:56 10° N
USA 215 3.3 19:50:34 10° NE 19:57:07 83° NW 20:03:39 10° SW
In-Cosmos 22 4.2 19:52:32 10° N 19:58:18 69° E 20:04:00 10° SSE
ISS -2.8 19:56:58 10° SSW 19:59:59 37° SE 20:00:33 34° ESE
OAO 3 Rocket 3.1 19:55:19 10° W 20:00:04 85° S 20:02:48 26° E
Cosmos 1674 4.1 19:59:13 10° NNE 20:01:38 22° ENE 20:01:38 22° ENE
Cosmos 1766 Rocket 3.4 20:01:32 10° N 20:05:54 86° E 20:10:14 10° S
ASTRO E2 3.3 20:02:46 10° WSW 20:06:38 44° S 20:08:09 30° SE
ALOS 2.6 20:04:00 19° SE 20:07:03 44° ENE 20:11:30 10° N
Cosmos 2034 Rocket 4.0 20:03:01 10° S 20:09:15 88° W 20:15:37 10° N
BREEZE-M TANK 3.7 20:05:39 10° WNW 20:13:13 47° SW 20:15:14 21° SSE
Helios 1B rocket 2.8 20:09:15 10° N 20:13:20 67° WNW 20:17:24 10° SSW
ATLAS 5 CENTAUR R/B 2.8 20:09:09 10° SW 20:13:43 47° NW 20:18:39 10° NNE
Meteor 1-29 3.1 20:10:23 10° N 20:13:54 75° WNW 20:17:21 10° SSW
OAO 1 Rocket 4.4 20:08:59 10° W 20:14:21 84° S 20:16:48 33° E
Meteor 1-21 Rocket 4.1 20:09:50 10° N 20:15:23 71° E 20:20:53 10° SSE
Cosmos 1076 Rocket 4.3 20:12:56 10° NNW 20:17:10 54° W 20:21:24 10° S
Atlas Centaur 2 3.9 20:10:25 10° W 20:18:12 39° SSW 20:23:25 19° SE
SeaSat 1 2.8 20:13:49 10° NE 20:18:28 40° ESE 20:23:05 10° S
Cosmos-2242 3.3 20:15:52 10° SSW 20:20:11 68° W 20:24:34 10° N
CZ-4B DEB 3.1 20:23:55 52° NNE 20:23:55 52° NNE 20:26:36 10° N
Cosmos 1452 Rocket 3.7 20:23:19 10° NNW 20:28:35 72° WSW 20:33:23 12° S
SL-16 R/B 4.5 20:25:17 10° WSW 20:29:53 25° WNW 20:34:32 10° N
SEDSat Delta rocket 4.2 20:24:57 10° W 20:31:34 62° S 20:34:02 39° ESE
CZ-2D R/B 3.2 20:33:52 68° NE 20:33:52 68° NE 20:37:32 10° N
ATLAS CENTAUR R/B 4.3 20:33:44 10° W 20:35:13 12° WSW 20:36:39 10° SW
Cosmos 1842 Rocket 3.3 20:31:03 10° S 20:35:21 80° E 20:39:43 10° N
Cosmos 1500 Rocket 3.5 20:35:12 10° N 20:39:25 67° ENE 20:39:25 67° ENE
SL-8 R/B 4.0 20:35:43 10° WSW 20:40:27 62° NNW 20:42:03 39° NNE
Cosmos 1544 4.3 20:37:08 10° SSW 20:40:41 43° W 20:44:17 10° N
Gbstr 26 Del rocket 3.1 20:41:11 10° SW 20:45:36 79° SE 20:45:51 76° E
H-2A R/B 3.1 20:50:10 62° NW 20:50:10 62° NW 20:53:34 10° NNW
Cosmos 1420 Rocket 4.0 20:45:24 10° NNW 20:50:43 83° WSW 20:52:00 53° S
FENGYUN 3A 3.9 20:47:47 20° S 20:51:28 68° WSW 20:56:50 10° NNW
Resurs 01 Rocket 3.7 20:50:23 10° SSW 20:54:09 27° W 20:57:57 10° NW
ASTEX 1 4.1 20:54:49 10° N 20:59:36 52° W 21:04:19 10° SSW
CENTAUR R/B 2.4 20:58:32 10° SW 21:04:29 81° WNW 21:11:10 10° NNE
Cosmos 1943 3.4 21:07:09 10° SSW 21:12:45 69° WNW 21:18:21 10° NNE
Cosmos 2369 Rocket 2.6 21:09:56 10° NNW 21:14:18 53° N 21:14:18 53° N
Cosmos 1943 Rocket 3.9 21:14:25 10° N 21:16:39 21° NNE 21:16:39 21° NNE
Cosmos 1655 Rocket 4.4 21:21:54 10° N 21:26:29 52° N 21:26:29 52° N
